Regional Weather Roundup
Issued by NWS

Home | Current Version | Previous Version | Text Only | Print | Product List | Glossary Off
Versions: 1 2 3 4 5 6 7 8 9 10 11 12 13 14 15 16 17 18 19 20 21 22 23 24 25 26 27 28 29 30 31 32 33 34 35 36 37 38 39 40 41 42 43 44 45 46 47 48 49 50

000
ASUS45 KCYS 240910
RWRWY

WYOMING REGIONAL WEATHER ROUNDUP
NATIONAL WEATHER SERVICE CHEYENNE WY
200 AM MST SAT JAN 24 2015

NOTE:  "FAIR" INDICATES FEW OR NO CLOUDS BELOW 12,000 FEET
WITH NO SIGNIFICANT WEATHER AND/OR OBSTRUCTIONS TO VISIBILITY.

WYZ001-241000-
YELLOWSTONE NATIONAL PARK

CITY           SKY/WX    TMP DP  RH WIND       PRES   REMARKS
LK YELLOWSTONE   N/A      9   7  92 CALM      30.39S
W YELLOWSTONE  NOT AVBL

$$
WYZ002>013-054>058-071-098>099-241000-
NORTHERN WYOMING

CITY           SKY/WX    TMP DP  RH WIND       PRES   REMARKS
JACKSON        MOCLDY     3   3 100 N9        30.44R WCI -11
CODY           FAIR      39  18  41 W20G29    30.09F WCI  30
GREYBULL       FAIR      12  10  92 SE5       30.18F WCI   4
WORLAND        FAIR      11   7  84 CALM      30.16F
SHERIDAN       FAIR      26  17  68 CALM      30.00F
BUFFALO        FAIR      38  18  44 S9        30.02F WCI  31
GILLETTE       FAIR      35  22  58 SW15      30.01F WCI  25
HULETT           N/A    N/A N/A N/A MISG        N/A
NEWCASTLE      FAIR      23  21  93 N5        30.07F WCI  17

$$
WYZ014>020-022>026-101>103-241000-
CENTRAL WYOMING

CITY           SKY/WX    TMP DP  RH WIND       PRES   REMARKS
BIG PINEY      FAIR       4   0  83 NW3       30.35S
PINEDALE       FAIR       3   1  92 NW7       30.35S WCI  -9
DUBOIS         FAIR      30  14  51 NW15G29   30.23S WCI  19
LANDER         FAIR      16  13  88 SE10      30.17F WCI   4
RIVERTON       FAIR      18  14  84 SE5       30.17F WCI  11
CASPER         FAIR      31  19  61 SW24      30.16R WCI  17
DOUGLAS        FAIR      24  20  84 NW3       30.12F

$$
WYZ021-027>030-104>119-241000-
SOUTHERN WYOMING

CITY           SKY/WX    TMP DP  RH WIND       PRES   REMARKS
EVANSTON       FAIR      16  13  88 SW10      30.40R WCI   4
FORT BRIDGER   FAIR      23  20  88 W16G22    30.38F WCI   9
ROCK SPRINGS   FAIR      22  17  81 SW16      30.35R WCI   8
DIXON          FAIR      11   6  81 SE5       30.39R WCI   3
RAWLINS        FAIR      24  13  62 W18       30.31R WCI  10
SARATOGA       FAIR      18  12  79 S13       30.30F WCI   4
LARAMIE        FAIR      12   8  84 CALM      30.19R
CHEYENNE       FAIR      32  14  47 W18G28    30.10S WCI  20
TORRINGTON     FAIR      29  20  69 NW13      30.11R WCI  19
PINE BLUFFS    FAIR      27  18  69 W6        30.15R WCI  20

$$



USA.gov is the U.S. government's official web portal to all federal, state and local government web resources and services.